Dewpoint
6 7 9 12 12 11 12 12 11 10 8 7 6 5 6 6 4 4 3 6 5 3 3 4 6 6 5 6 7 5 3 3 4 4 2 -1 -2 3 5 5 9 13 12 11 11 10 9 9 8
6 7 10 11 12 12 12 10 11 9 7 6 6 6 6 5 5 4 2 2 3 1 2 2 6 7 7 5 5 3 2 3 3 2 -4 -9 -6 -2 3 5 6 9 11 11 11 12 10 10 11
6 10 9 11 12 10 10 9 9 7 7 7 6 6 5 5 6 4 0 1 2 3 -1 1 4 7 7 4 2 2 3 3 1 -5 -15 -17 -12 -6 -1 2 2 5 12 12 11 12 10 13 12
5 9 9 9 9 8 9 4 7 7 7 7 6 5 5 6 6 4 1 1 2 5 3 1 -1 5 7 4 4 4 4 1 -3 -11 -19 -20 -18 -17 -8 -3 -3 2 3 8 10 11 13 13 13
5 6 5 5 5 4 2 0 2 2 3 4 6 5 6 6 6 5 3 2 2 4 7 9 0 5 5 7 6 6 5 0 -4 -11 -17 -17 -17 -17 -18 -17 -14 -12 -5 1 4 10 13 12 12
5 4 2 2 3 2 1 -4 1 -4 -3 -0 3 6 6 7 7 6 5 4 4 6 7 8 10 11 12 11 6 8 7 4 -1 -8 -14 -16 -16 -14 -15 -16 -18 -20 -18 -14 2 6 13 11 12
5 3 3 5 3 -1 -1 -6 -3 -6 -9 -0 -2 3 3 -1 5 7 6 7 6 7 9 10 10 12 12 11 9 8 8 8 2 -4 -11 -15 -15 -14 -15 -15 -15 -18 -21 -21 -13 4 13 13 12
4 3 5 4 1 -5 -3 -6 -4 -6 -7 -8 -8 2 -1 -6 -1 10 8 8 8 9 10 11 12 13 13 12 6 5 5 8 7 1 -6 -13 -15 -14 -14 -15 -14 -14 -17 -20 -20 -14 14 14 14
2 -3 -2 -1 -1 -6 -5 -4 -6 -5 -6 -9 -8 -6 -4 -3 4 11 11 10 10 10 11 12 12 13 14 13 9 5 5 3 2 7 3 -6 -13 -15 -13 -15 -14 -13 -13 -16 -19 -18 -12 -2 -2
-2 -7 -10 -6 -5 -4 -4 -4 -4 -5 -5 -7 -5 -5 -5 -5 11 13 12 12 12 12 12 13 14 14 14 14 11 7 6 6 5 3 7 5 -5 -13 -15 -13 -15 -14 -12 -12 -14 -17 -17 -14 -8
0 -4 -4 -3 -3 -2 -3 -4 -4 -4 -4 -2 -2 -3 -3 -2 10 14 13 13 13 13 13 13 14 14 14 14 13 10 8 7 8 5 2 7 6 0 -8 -14 -12 -14 -15 -12 -11 -13 -15 -14 -11
-1 -2 -2 -2 -3 -3 -3 -4 -5 -3 -1 -2 -3 -3 -3 -2 4 7 9 10 11 11 12 12 13 14 14 14 14 13 10 10 10 10 7 7 7 7 2 -8 -11 -11 -13 -14 -12 -11 -12 -14 -13
-3 -4 -4 -4 -6 -5 -4 -5 -4 -3 -3 -4 -4 -4 -4 -3 -2 -1 -0 1 3 4 7 9 11 11 12 14 15 14 12 11 11 11 10 8 8 6 3 0 -5 -9 -9 -12 -13 -12 -10 -11 -14
-3 -3 -5 -8 -7 -5 -5 -4 -5 -3 -4 -4 -4 -4 -4 -4 -4 -4 -3 -2 -1 1 2 4 5 7 10 11 14 15 14 12 12 12 11 10 9 8 6 3 -1 -5 -7 -8 -11 -11 -11 -10 -11
-3 -6 -6 -7 -8 -4 -5 -4 -3 -3 -5 -5 -6 -6 -5 -5 -5 -6 -6 -6 -5 -4 -2 2 5 7 8 12 15 15 15 15 14 13 12 12 11 10 9 6 3 1 -2 -5 -8 -9 -10 -11 -11
-4 -6 -6 -8 -5 -4 -6 -3 -5 -4 -5 -6 -7 -8 -10 -11 -11 -12 -12 -11 -11 -10 -8 -7 -1 5 8 8 10 13 13 14 15 14 14 13 13 12 11 9 7 5 3 1 -3 -6 -8 -9 -10
-5 -5 -7 -7 -4 -4 -3 -3 -6 -6 -7 -7 -7 -8 -10 -11 -12 -12 -14 -15 -16 -17 -17 -17 -14 -10 -6 -2 1 5 8 10 11 12 13 14 14 14 13 11 9 6 5 4 2 -2 -5 -7 -8
-5 -5 -7 -7 -5 -3 -4 -5 -7 -7 -8 -8 -8 -9 -10 -11 -11 -12 -14 -15 -16 -17 -19 -20 -21 -20 -17 -12 -7 -3 1 3 5 7 9 11 12 13 13 12 10 6 4 3 2 2 -1 -4 -5
-6 -5 -4 -4 -4 -4 -5 -5 -7 -7 -8 -8 -8 -8 -9 -11 -12 -13 -13 -14 -15 -16 -16 -17 -17 -17 -20 -22 -23 -17 -12 -6 -2 1 3 5 7 9 11 12 11 8 6 4 2 1 -0 0 -2
-3 -3 -3 -3 -2 -4 -4 -5 -7 -7 -7 -7 -8 -8 -9 -9 -11 -12 -13 -13 -14 -14 -14 -14 -14 -14 -15 -15 -15 -18 -16 -13 -11 -10 -8 -3 0 3 5 6 8 8 6 5 2 1 -1 1 0
-3 -3 -3 -2 -1 -4 -5 -4 -7 -11 -10 -7 -7 -8 -8 -8 -9 -10 -11 -12 -12 -12 -12 -13 -13 -14 -14 -14 -14 -14 -13 -15 -15 -13 -13 -12 -11 -8 -2 1 4 7 5 3 2 0 -1 -1 1
-1 -3 -2 -1 0 -2 -3 -1 -4 -9 -12 -13 -13 -12 -10 -8 -7 -9 -10 -11 -11 -10 -11 -11 -11 -11 -12 -12 -11 -10 -8 -9 -10 -13 -11 -8 -8 -10 -10 -8 -4 -0 3 4 3 -1 -1 -1 -1
-1 -4 -2 -1 0 -0 -0 2 0 -10 -10 -12 -12 -11 -12 -13 -12 -9 -9 -9 -10 -10 -10 -10 -10 -11 -11 -11 -12 -10 -9 -9 -9 -9 -9 -5 -4 -6 -6 -7 -7 -8 -7 -1 2 3 1 -0 -1
-5 -5 -4 -0 0 -1 -2 1 -1 -8 -10 -11 -11 -11 -11 -11 -11 -12 -9 -9 -9 -10 -9 -9 -9 -9 -10 -10 -9 -9 -8 -8 -8 -8 -9 -4 -3 -4 -6 -6 -6 -6 -6 -6 -3 -0 2 4 2
-4 -9 -8 -9 -2 -2 -2 -0 -2 -7 -11 -11 -11 -11 -10 -11 -10 -11 -10 -9 -8 -8 -8 -8 -8 -8 -8 -8 -8 -8 -7 -7 -7 -7 -8 -9 -9 -8 -7 -8 -6 -4 -6 -6 -5 -2 -1 -0 3
-3 -4 -6 -12 -9 -5 -2 -2 -5 -11 -11 -10 -10 -10 -10 -10 -11 -10 -9 -7 -8 -7 -7 -6 -7 -7 -7 -7 -7 -6 -6 -6 -6 -5 -5 -6 -10 -9 -5 -7 -5 -1 -4 -5 -6 -4 -1 -1 -0
-6 -5 -5 -5 -4 -4 -5 -5 -9 -11 -11 -10 -9 -9 -10 -9 -9 -9 -9 -8 -7 -7 -7 -8 -8 -10 -9 -7 -6 -6 -5 -6 -6 -5 -5 -8 -9 -10 -6 -5 -0 -1 -3 -4 -6 -4 -2 -0 -0
-8 -8 -6 -6 -7 -7 -8 -8 -6 -9 -9 -9 -9 -9 -9 -8 -8 -8 -8 -8 -9 -10 -10 -9 -9 -9 -9 -7 -6 -5 -5 -5 -6 -7 -12 -11 -6 -8 -7 -4 -4 -4 -3 -4 -6 -2 -3 -0 1
-11 -8 -6 -6 -6 -5 -5 -7 -11 -10 -9 -9 -9 -9 -9 -9 -7 -7 -8 -10 -11 -11 -9 -8 -8 -6 -8 -7 -8 -7 -7 -5 -5 -6 -12 -10 -8 -7 -9 -5 -3 -3 -4 -6 -6 -3 -1 -2 0
-10 -10 -9 -4 -8 -5 -4 -3 -9 -10 -9 -10 -9 -8 -8 -8 -7 -9 -10 -10 -9 -8 -7 -7 -7 -6 -5 -6 -5 -5 -5 -5 -5 -7 -9 -9 -8 -7 -5 -5 -4 -4 -4 -5 -1 -1 -1 -3 -3
Wind_Speed
7 8 9 4 4 5 2 3 2 3 4 2 1 1 3 3 3 2 4 2 2 9 10 11 9 8 9 8 8 6 4 3 2 2 2 1 1 3 4 4 6 6 6 6 5 6 7 9 10
7 8 5 3 5 4 5 4 3 4 1 3 3 5 3 1 1 2 3 2 3 5 9 10 10 8 8 8 8 6 5 4 3 3 3 2 2 4 4 4 5 6 6 6 6 5 6 8 9
6 7 4 4 3 2 3 4 6 5 1 0 1 2 1 1 0 2 3 3 3 5 8 9 9 8 8 8 8 7 6 5 3 3 3 2 2 3 4 5 4 5 5 6 6 5 5 7 8
7 3 5 5 2 2 2 5 4 7 4 3 1 2 2 1 2 1 2 5 3 4 7 7 7 7 7 7 8 7 6 6 4 3 3 3 3 3 4 5 4 6 6 7 8 7 5 6 6
4 3 4 3 3 3 3 5 6 4 5 8 2 2 3 3 3 1 2 5 6 4 5 4 5 3 3 5 7 7 7 7 5 4 4 3 3 2 3 4 4 4 5 7 8 9 6 7 7
3 3 5 1 3 5 5 10 2 6 8 9 7 5 4 7 4 4 2 2 4 6 4 5 4 1 2 4 5 7 8 8 7 6 5 5 4 3 2 3 3 4 5 5 8 9 8 7 8
5 3 3 2 2 4 3 12 4 6 12 6 8 3 5 13 10 5 3 2 1 2 3 4 3 1 1 4 5 6 9 10 9 8 7 7 6 4 3 2 3 3 4 5 8 11 4 7 10
3 4 3 2 1 3 6 9 4 8 4 16 11 4 5 21 13 7 7 5 5 3 3 4 3 4 3 5 6 5 8 11 11 11 10 8 8 7 5 4 3 3 3 4 6 8 11 11 10
3 4 0 2 3 3 6 6 3 9 6 7 12 13 15 13 5 7 10 9 10 11 10 10 10 9 8 7 6 5 4 5 10 13 13 11 10 9 8 7 5 4 4 4 5 7 11 14 11
5 3 3 3 2 3 7 5 10 5 14 11 21 17 10 8 2 9 10 12 13 15 15 16 17 18 16 13 10 7 5 4 5 9 14 13 12 11 11 10 8 7 6 6 6 7 8 9 11
2 3 3 2 4 5 7 8 9 9 6 13 10 13 12 4 5 7 7 6 12 16 18 19 22 22 21 21 18 16 11 10 8 7 9 12 14 14 13 12 12 10 8 8 7 7 7 8 9
2 1 1 4 6 10 7 10 17 23 7 13 18 19 15 15 11 8 1 6 8 13 17 20 23 26 26 25 25 23 20 18 16 14 12 15 15 16 16 14 14 13 11 10 8 8 8 9 10
1 3 7 10 14 7 4 14 14 17 14 16 19 22 26 26 26 21 18 11 5 7 11 18 22 25 25 28 30 29 26 24 22 18 17 15 15 16 18 17 16 15 14 13 11 10 10 10 11
4 7 11 6 7 11 4 11 6 11 13 19 22 26 26 26 25 23 21 23 18 13 9 10 16 18 22 24 28 32 32 30 29 25 22 20 18 16 16 18 18 18 17 15 14 13 13 12 12
4 6 5 6 8 4 2 7 9 4 17 22 25 26 26 27 25 28 26 25 24 23 19 15 13 9 11 16 19 24 30 32 32 30 26 25 23 21 18 18 19 18 17 18 18 17 17 16 15
4 5 3 3 11 7 4 2 10 9 17 22 24 26 26 26 26 25 24 23 23 23 24 23 20 16 14 12 10 16 19 23 28 32 31 30 29 27 26 21 19 17 18 19 19 20 20 19 18
7 1 2 6 8 2 7 2 7 10 19 20 20 21 22 22 23 23 23 23 23 24 23 22 21 20 18 14 13 12 10 11 19 25 28 30 30 31 31 30 25 23 21 20 20 21 22 22 21
1 1 2 4 5 9 7 4 3 9 15 15 16 17 18 19 20 19 20 21 23 24 25 26 25 23 19 15 11 9 8 9 9 9 15 24 28 31 31 33 33 30 28 27 25 23 22 24 23
2 1 3 4 1 6 3 5 2 5 9 10 11 12 14 15 14 15 17 20 22 24 26 28 28 29 29 27 23 17 13 11 9 9 9 9 15 23 29 33 33 34 34 31 30 29 25 24 24
1 2 4 3 3 5 4 3 2 2 1 4 6 7 8 8 10 13 15 19 22 23 26 27 29 30 31 32 31 27 22 17 14 13 12 11 10 12 17 23 30 35 35 37 35 34 33 30 27
2 3 2 3 4 5 6 2 5 3 3 2 1 1 2 4 7 9 12 16 17 21 24 26 29 31 33 31 29 27 24 23 22 20 18 17 16 15 15 15 18 28 34 37 38 39 39 38 34
3 2 1 2 1 3 4 5 5 5 4 3 3 4 5 6 6 7 9 11 14 17 20 22 23 23 24 25 25 24 24 26 26 23 21 20 19 18 17 18 19 18 19 28 36 39 44 42 42
6 2 2 1 4 2 2 2 5 6 4 3 3 7 6 8 10 13 11 12 14 18 20 22 23 23 25 26 26 26 24 26 28 26 20 17 19 19 19 19 18 18 21 23 24 29 38 43 43
4 2 5 4 3 1 2 4 4 6 7 4 0 7 5 8 12 15 14 14 14 16 18 21 21 22 24 23 24 25 28 30 30 26 22 20 23 24 24 24 23 21 19 20 23 24 27 34 41
8 6 4 5 4 5 1 0 7 7 8 8 3 3 9 10 16 14 12 14 16 18 21 24 24 27 25 24 28 31 30 28 30 29 26 26 27 27 26 24 23 23 23 23 22 24 27 29 34
4 4 4 4 3 5 4 6 5 7 16 10 3 5 9 10 11 12 10 14 17 21 24 27 29 29 28 29 33 33 31 31 32 31 29 30 29 25 24 23 23 22 24 23 24 27 28 30 32
1 4 3 2 1 1 3 6 3 3 6 8 3 8 8 7 12 13 13 17 21 28 32 38 37 37 36 36 36 36 35 35 32 33 35 36 31 26 26 21 20 22 24 24 23 26 29 29 32
3 4 2 3 3 5 5 6 5 10 11 7 5 8 12 11 13 16 18 25 31 36 40 36 38 35 37 38 37 38 38 38 39 39 40 34 32 28 23 22 21 23 23 24 22 24 25 29 29
3 1 4 3 4 4 3 6 5 14 14 8 8 9 16 17 17 23 29 37 41 40 40 41 42 41 39 40 42 41 46 45 42 42 36 31 32 30 28 23 21 22 23 24 25 26 26 26 30
1 2 4 4 4 1 3 8 4 7 18 11 6 19 25 15 23 31 39 40 39 40 42 44 46 46 46 49 48 48 45 46 41 37 36 31 31 30 27 24 24 26 27 25 23 25 27 27 27
Wind_Direction
3 357 344 353 50 59 352 347 296 297 331 327 58 92 137 106 128 184 345 158 172 180 174 172 170 177 178 185 182 186 186 194 212 241 269 266 180 151 144 142 149 144 130 125 112 103 108 112 113
7 354 357 38 74 45 304 277 289 246 20 72 78 97 44 334 119 123 53 126 141 173 181 179 181 183 184 188 196 194 195 199 223 260 281 264 193 185 178 149 157 164 158 151 140 121 121 124 125
4 360 25 81 97 93 272 297 293 318 345 333 272 259 204 344 313 53 35 96 141 166 180 186 191 186 190 188 192 196 197 199 220 258 278 250 203 185 179 179 177 159 146 171 167 151 147 138 138
3 19 57 75 37 241 239 310 302 337 354 18 295 356 316 241 53 57 53 70 107 145 174 189 199 193 199 197 198 198 205 207 215 239 261 234 214 197 194 199 202 180 185 172 183 172 172 159 157
7 45 52 63 307 264 277 314 339 0 357 347 356 323 302 345 237 256 16 67 65 94 158 179 173 176 241 237 219 217 222 222 227 223 233 234 216 193 200 215 224 220 205 209 195 183 177 185 181
54 66 58 353 270 291 307 352 3 19 348 342 16 345 344 349 299 278 309 49 90 65 114 132 139 150 268 289 263 246 245 242 240 240 231 227 228 223 217 220 231 229 228 215 200 195 183 209 206
94 75 182 207 250 307 341 356 39 360 338 355 357 8 341 6 341 263 212 234 153 107 108 114 113 121 356 351 305 274 259 256 249 250 247 239 234 238 243 243 243 238 237 231 212 201 182 222 214
77 89 134 264 287 285 353 1 349 355 330 344 357 20 343 339 324 235 205 222 232 245 251 246 249 251 271 321 337 324 287 261 258 256 255 252 247 246 255 259 265 260 248 237 229 212 194 210 214
67 60 308 277 169 293 350 12 8 328 344 21 26 23 339 353 345 217 213 221 234 238 246 255 259 263 271 289 309 315 312 330 267 266 264 263 259 255 256 260 267 268 260 248 237 228 224 234 240
71 96 221 235 245 312 329 346 327 356 348 3 348 347 1 345 201 205 212 227 242 249 253 254 254 255 260 267 273 296 291 282 321 275 264 270 272 269 264 256 262 270 271 265 253 242 241 242 240
86 170 194 327 304 325 323 336 337 358 26 8 12 22 31 51 147 200 229 264 255 257 263 268 262 260 260 262 265 265 276 281 272 291 269 266 272 276 276 268 264 269 274 276 270 263 256 252 249
345 280 264 289 312 318 306 308 62 67 82 68 69 65 61 60 66 61 333 276 264 266 267 266 262 261 264 260 261 263 265 270 273 275 272 260 267 275 278 273 268 266 268 268 270 267 263 264 262
133 326 322 309 321 332 325 74 88 66 81 83 78 71 68 70 69 67 62 49 11 288 271 265 263 265 266 264 264 266 265 265 269 270 271 271 269 272 277 278 274 270 267 264 264 266 267 267 265
323 301 302 320 15 38 16 81 39 33 84 81 74 71 69 69 67 67 60 55 47 40 359 310 281 269 259 257 258 263 264 265 268 268 268 269 272 272 276 278 277 273 273 268 266 267 267 268 267
330 350 346 30 348 19 303 54 0 118 96 81 75 75 73 70 66 63 61 58 53 52 42 28 13 348 277 254 257 260 264 263 263 267 269 267 269 268 266 272 274 276 273 271 267 267 268 268 270
45 48 33 346 16 13 44 53 15 103 93 81 80 77 74 68 66 64 60 57 52 51 52 52 46 33 26 8 320 275 269 263 262 262 263 262 259 262 264 263 269 268 269 272 270 268 268 269 269
8 102 348 328 38 327 25 87 7 99 96 88 84 80 77 74 67 60 55 50 46 42 41 42 45 50 47 39 30 20 352 302 273 266 264 262 264 257 257 258 260 259 257 267 272 270 269 269 269
280 8 302 272 350 54 60 108 43 98 97 92 88 82 75 69 63 57 50 43 40 36 34 31 27 28 28 37 44 38 21 15 358 321 277 263 260 260 257 255 255 256 255 257 262 271 272 271 270
136 162 256 265 26 83 86 136 136 119 106 100 92 84 76 67 58 50 42 35 31 29 27 25 22 20 13 9 4 3 2 356 354 358 348 313 281 269 263 254 255 256 254 255 260 266 266 272 270
188 281 287 294 14 97 190 162 192 189 145 115 100 86 71 61 44 37 32 25 23 22 20 19 16 13 9 5 4 356 344 338 334 331 325 318 314 300 284 271 261 253 254 253 253 258 261 266 265
292 199 198 230 28 48 129 265 205 208 178 173 148 52 13 11 19 20 15 13 13 13 12 10 6 4 0 357 352 347 340 332 324 318 316 318 312 304 298 294 281 260 255 253 247 253 255 259 264
310 184 310 235 64 243 181 288 224 203 196 222 257 285 291 301 318 333 340 348 355 359 359 357 357 356 356 353 347 340 335 334 335 327 316 314 307 305 306 297 288 284 274 261 253 251 250 253 257
233 352 256 212 191 81 221 128 290 137 206 202 306 10 359 333 322 300 306 321 335 344 343 341 339 342 343 342 339 336 327 325 324 325 318 298 301 305 307 309 308 295 279 275 272 260 252 250 252
303 39 51 58 100 357 219 153 234 188 186 170 358 24 24 12 333 307 281 297 314 321 322 323 315 321 327 325 325 324 324 324 321 320 315 301 301 304 304 304 304 300 294 285 276 273 267 259 252
36 39 340 354 7 236 285 298 261 196 153 155 156 12 356 321 327 315 284 286 297 307 315 319 319 317 310 312 317 318 315 313 312 310 308 307 303 300 299 298 293 293 295 294 288 277 272 268 262
52 116 137 266 260 284 319 239 276 170 165 148 91 345 334 345 340 334 299 287 298 305 315 318 318 313 308 300 306 305 304 304 300 298 301 304 304 294 294 289 277 280 289 293 289 285 275 276 268
114 57 150 104 11 358 258 288 317 164 198 196 284 324 343 354 351 343 323 306 304 312 317 318 314 312 306 302 302 298 301 304 295 291 297 300 300 294 291 285 268 274 282 287 290 288 281 277 277
91 150 58 20 275 272 283 283 236 201 212 220 256 318 333 324 338 341 333 324 321 317 316 315 313 311 303 299 300 295 296 300 296 294 297 295 294 295 292 273 274 273 274 282 289 288 285 276 277
25 36 59 126 158 216 293 262 222 202 198 195 243 316 340 324 326 329 325 323 324 321 317 312 310 307 305 298 299 298 293 292 289 289 293 290 293 295 290 283 275 271 279 280 280 282 283 287 276
210 220 152 138 221 161 147 270 294 228 175 185 300 334 332 319 323 323 323 325 321 317 314 311 308 304 302 303 294 303 296 296 287 281 287 292 291 297 295 282 278 280 283 284 267 276 278 284 286
Height
1532 1531 1530 1529 1540 1545 1552 1545 1538 1536 1533 1531 1531 1530 1531 1531 1534 1549 1535 1534 1534 1535 1537 1538 1540 1541 1543 1545 1546 1548 1548 1549 1549 1549 1549 1549 1549 1549 1549 1549 1549 1549 1549 1549 1549 1549 1549 1549 1550
1532 1531 1530 1529 1550 1564 1558 1541 1538 1534 1532 1531 1532 1531 1532 1533 1532 1534 1534 1533 1534 1535 1537 1538 1540 1542 1544 1546 1547 1548 1549 1549 1549 1550 1549 1549 1549 1549 1550 1550 1550 1550 1550 1550 1550 1550 1551 1551 1552
1533 1531 1531 1538 1555 1560 1556 1539 1537 1533 1532 1531 1532 1532 1532 1533 1533 1534 1534 1534 1534 1535 1536 1538 1540 1542 1544 1545 1546 1548 1548 1549 1549 1550 1550 1550 1550 1550 1550 1550 1550 1551 1551 1551 1551 1551 1552 1552 1553
1533 1533 1536 1547 1551 1545 1542 1538 1535 1532 1531 1532 1532 1533 1534 1533 1534 1534 1534 1535 1535 1536 1538 1540 1541 1543 1544 1545 1546 1548 1549 1549 1549 1550 1550 1550 1550 1550 1550 1551 1551 1551 1551 1551 1552 1552 1553 1554 1555
1534 1534 1548 1553 1550 1543 1539 1537 1535 1534 1533 1533 1533 1534 1534 1534 1534 1534 1535 1536 1536 1537 1538 1540 1542 1544 1545 1546 1547 1548 1549 1549 1550 1550 1550 1550 1550 1550 1550 1550 1550 1551 1551 1551 1552 1553 1554 1555 1556
1535 1537 1557 1561 1551 1542 1538 1537 1536 1536 1535 1534 1535 1535 1535 1535 1535 1535 1536 1537 1537 1538 1539 1540 1542 1543 1544 1545 1546 1547 1548 1549 1549 1550 1550 1550 1550 1550 1550 1550 1550 1550 1550 1551 1552 1553 1554 1555 1557
1537 1544 1554 1552 1551 1545 1540 1538 1538 1538 1537 1537 1536 1537 1536 1535 1536 1536 1536 1537 1538 1539 1541 1542 1542 1543 1544 1545 1545 1546 1547 1548 1549 1549 1549 1550 1550 1550 1550 1550 1550 1550 1550 1550 1551 1552 1554 1555 1556
1538 1542 1551 1551 1553 1548 1541 1540 1540 1540 1538 1539 1537 1538 1537 1535 1533 1535 1536 1537 1538 1539 1540 1541 1542 1543 1544 1545 1545 1546 1546 1547 1548 1548 1548 1549 1549 1550 1550 1550 1550 1550 1549 1549 1549 1551 1552 1553 1553
1539 1552 1558 1550 1550 1544 1542 1541 1540 1540 1540 1539 1540 1541 1540 1534 1532 1534 1536 1537 1538 1539 1540 1541 1542 1543 1544 1544 1544 1544 1545 1545 1546 1547 1547 1548 1549 1549 1549 1550 1549 1549 1549 1549 1549 1549 1549 1550 1550
1541 1555 1550 1546 1544 1544 1542 1542 1540 1540 1540 1539 1538 1538 1536 1534 1532 1534 1536 1537 1538 1539 1540 1541 1542 1544 1544 1544 1544 1545 1545 1544 1545 1545 1545 1547 1548 1548 1548 1549 1549 1549 1549 1548 1548 1548 1548 1548 1549
1544 1550 1546 1544 1544 1543 1542 1540 1541 1542 1543 1547 1543 1539 1535 1533 1532 1533 1535 1535 1537 1538 1539 1540 1540 1541 1542 1543 1544 1544 1545 1544 1544 1544 1544 1545 1546 1546 1546 1547 1548 1548 1548 1547 1547 1547 1547 1547 1548
1546 1544 1545 1544 1543 1542 1541 1540 1550 1546 1555 1552 1546 1542 1538 1534 1534 1534 1535 1535 1535 1535 1535 1535 1535 1537 1539 1540 1540 1542 1543 1544 1545 1545 1545 1544 1545 1545 1545 1545 1546 1546 1546 1546 1546 1546 1546 1546 1546
1545 1545 1544 1543 1541 1539 1539 1544 1550 1555 1556 1553 1548 1543 1540 1539 1538 1537 1537 1535 1534 1533 1532 1531 1531 1532 1534 1536 1537 1538 1540 1541 1541 1543 1543 1543 1544 1544 1544 1544 1544 1544 1544 1544 1544 1544 1544 1544 1544
1545 1545 1543 1541 1541 1541 1540 1547 1545 1559 1557 1552 1548 1546 1545 1542 1542 1541 1538 1537 1535 1534 1531 1529 1528 1528 1528 1530 1532 1534 1535 1537 1538 1540 1540 1541 1542 1542 1542 1542 1542 1542 1542 1542 1542 1542 1542 1542 1541
1544 1545 1542 1542 1542 1542 1540 1550 1560 1560 1558 1553 1551 1549 1548 1546 1545 1542 1542 1540 1538 1536 1533 1529 1527 1525 1524 1525 1526 1528 1530 1531 1532 1534 1535 1536 1537 1538 1538 1539 1539 1540 1540 1539 1539 1539 1539 1539 1539
1548 1550 1556 1544 1542 1542 1541 1560 1565 1562 1557 1556 1554 1552 1551 1550 1548 1546 1545 1543 1541 1539 1535 1533 1531 1528 1527 1525 1525 1525 1525 1525 1526 1527 1528 1528 1530 1531 1531 1533 1534 1535 1536 1536 1535 1535 1535 1535 1535
1557 1561 1555 1551 1548 1545 1545 1563 1564 1562 1558 1557 1556 1555 1553 1552 1550 1549 1547 1545 1542 1540 1538 1535 1533 1531 1529 1528 1526 1525 1524 1523 1522 1522 1522 1522 1522 1523 1524 1526 1528 1529 1530 1531 1531 1531 1531 1531 1531
1559 1559 1557 1557 1552 1554 1560 1566 1564 1562 1560 1558 1557 1556 1555 1553 1551 1551 1549 1547 1545 1542 1540 1537 1534 1533 1532 1530 1529 1526 1524 1522 1520 1518 1517 1516 1515 1514 1516 1518 1521 1523 1525 1526 1525 1526 1527 1527 1527
1552 1556 1559 1555 1552 1559 1564 1566 1563 1562 1561 1560 1559 1557 1556 1554 1553 1552 1550 1548 1546 1543 1540 1537 1535 1532 1530 1528 1527 1525 1523 1522 1520 1517 1515 1513 1510 1510 1508 1509 1512 1514 1516 1519 1520 1522 1522 1522 1523
1552 1555 1559 1554 1553 1558 1567 1566 1563 1562 1562 1561 1559 1558 1557 1556 1555 1553 1551 1548 1546 1543 1541 1538 1535 1533 1531 1528 1526 1524 1522 1521 1518 1516 1514 1512 1509 1506 1504 1504 1504 1505 1506 1509 1511 1514 1515 1516 1516
1553 1555 1556 1558 1556 1561 1566 1567 1563 1561 1561 1560 1559 1558 1557 1556 1554 1553 1550 1548 1546 1543 1541 1538 1536 1534 1531 1528 1525 1523 1520 1518 1515 1513 1511 1508 1505 1502 1500 1499 1498 1495 1497 1499 1500 1504 1506 1508 1509
1557 1551 1552 1555 1560 1568 1561 1572 1563 1560 1560 1560 1559 1558 1557 1555 1554 1552 1550 1548 1545 1543 1541 1539 1536 1533 1530 1527 1524 1521 1517 1513 1510 1508 1505 1504 1501 1498 1496 1494 1492 1491 1491 1490 1490 1493 1495 1499 1500
1555 1551 1553 1553 1558 1561 1563 1570 1555 1561 1561 1559 1557 1556 1555 1554 1552 1549 1548 1546 1544 1542 1539 1536 1533 1531 1528 1525 1521 1518 1514 1511 1507 1504 1501 1499 1497 1494 1491 1489 1487 1486 1484 1484 1483 1483 1485 1486 1490
1550 1550 1557 1561 1566 1569 1559 1564 1557 1562 1556 1557 1555 1554 1554 1552 1550 1547 1546 1544 1543 1541 1538 1534 1531 1528 1524 1521 1518 1514 1510 1506 1502 1499 1496 1494 1492 1489 1486 1484 1482 1480 1478 1477 1476 1476 1475 1477 1478
1553 1562 1570 1565 1570 1565 1560 1562 1547 1549 1550 1552 1553 1553 1551 1550 1547 1544 1543 1542 1540 1537 1534 1530 1527 1523 1520 1516 1513 1510 1505 1501 1497 1493 1490 1487 1484 1482 1480 1478 1476 1474 1472 1470 1468 1467 1467 1468 1468
1560 1564 1576 1568 1577 1575 1566 1560 1545 1545 1547 1549 1550 1550 1549 1547 1545 1542 1540 1539 1537 1534 1530 1526 1523 1518 1514 1510 1506 1503 1499 1495 1490 1486 1483 1479 1476 1473 1472 1470 1469 1467 1465 1463 1462 1460 1458 1458 1458
1562 1570 1569 1577 1584 1586 1567 1552 1547 1546 1547 1547 1547 1547 1546 1544 1542 1540 1538 1536 1533 1529 1525 1520 1515 1511 1507 1503 1498 1494 1491 1487 1483 1479 1475 1471 1468 1465 1464 1462 1461 1460 1458 1456 1454 1452 1451 1450 1450
1557 1564 1574 1586 1576 1576 1567 1563 1544 1547 1545 1544 1544 1543 1542 1540 1537 1536 1534 1532 1528 1524 1518 1512 1508 1502 1497 1493 1489 1485 1482 1479 1475 1470 1466 1462 1459 1457 1455 1454 1453 1451 1450 1448 1446 1445 1444 1442 1441
1566 1569 1576 1580 1585 1579 1582 1557 1534 1532 1535 1540 1540 1539 1537 1535 1533 1531 1529 1525 1520 1515 1510 1505 1500 1494 1489 1485 1481 1476 1472 1469 1466 1461 1457 1454 1450 1448 1445 1445 1444 1443 1441 1440 1438 1437 1436 1434 1433
1564 1566 1572 1585 1577 1593 1604 1565 1531 1530 1531 1534 1534 1533 1533 1530 1528 1525 1522 1517 1512 1506 1500 1495 1489 1485 1480 1475 1470 1464 1460 1456 1453 1450 1448 1445 1442 1439 1436 1434 1433 1432 1431 1429 1428 1427 1427 1426 1425